Location: Crescent
(42.8242°N, 73.7329°W)
Time: 18:50:46
(UTC+00:00)

Transit 2A - Pass Details

Date: 05 November 2024
Orbit: 593 x 956 km, 66.7° (Epoch: 14 December)

Event Time Altitude Azimuth Distance (km) Brightness Sun altitude
Rises 09:56:35 0° 176° (S) 3,545 9.6 -18.3°
Reaches altitude 10° 09:59:23 10° 165° (SSE) 2,639 9.0 -17.8°
Maximum altitude 10:04:37 29° 108° (ESE) 1,666 8.5 -16.9°
Drops below altitude 10° 10:09:56 10° 51° (NE) 2,685 9.4 -15.9°
Sets 10:12:48 0° 41° (NE) 3,618 10.0 -15.4°
